Location: Molino di Ancona
(43.6167°N, 13.3667°E)
Time: 04:33:03
(UTC+00:00)

Cosmos 1733 Rocket - Pass Details

Date: 15 December 2019
Orbit: 604 x 627 km, 82.5° (Epoch: 24 January)

Event Time Altitude Azimuth Distance (km) Brightness Sun altitude
Rises 05:46:26 0° 225° (SW) 2,848 6.3 -8.2°
Reaches altitude 10° 05:49:10 10° 243° (WSW) 1,951 5.3 -7.7°
Maximum altitude 05:52:16 19° 289° (WNW) 1,455 4.3 -7.2°
Drops below altitude 10° 05:55:24 10° 336° (NNW) 1,966 5.2 -6.7°
Sets 05:58:12 0° 354° (N) 2,878 6.2 -6.3°
